Regional Weather Roundup
Issued by NWS

Home | Current Version | Previous Version | Text Only | Print | Product List | Glossary Off
Versions: 1 2 3 4 5 6 7 8 9 10 11 12 13 14 15 16 17 18 19 20 21 22 23 24 25 26 27 28 29 30 31 32 33 34 35 36 37 38 39 40 41 42 43 44 45 46 47 48 49 50

000
ASUS45 KBOU 051907
RWRCO

WEATHER ROUNDUP FOR COLORADO
NATIONAL WEATHER SERVICE DENVER/BOULDER CO
100 PM MDT THU MAY 05 2016

NOTE: "FAIR" INDICATES FEW OR NO CLOUDS BELOW 12000 FEET WITH NO
SIGNIFICANT WEATHER AND/OR OBSTRUCTIONS TO VISIBILITY.

COZ001>005-013-030-031-052000-
...NORTHWEST COLORADO...

CITY           SKY/WX    TMP DP  RH WIND       PRES   REMARKS
CRAIG          FAIR      72  27  18 VRB3      30.12F
HAYDEN         FAIR      72  23  16 W9        30.15F
MEEKER         FAIR      74  23  15 SW8       30.13F
MOUNT WERNER   NOT AVBL
STEAMBOAT SPGS FAIR      71  29  21 S10       30.17F
WALDEN         PTSUNNY   64  23  20 W12       30.26F
$$

COZ006>008-011-052000-
...WEST CENTRAL VALLEYS...

CITY           SKY/WX    TMP DP  RH WIND       PRES   REMARKS
GRAND JUNCTION FAIR      78  33  19 SE5       30.03F
MONTROSE       FAIR      79  25  13 VRB7      30.10F
EAGLE          SUNNY     73  21  14 CALM      30.18F
RIFLE          FAIR      76  28  17 VRB3      30.09F
DELTA          NOT AVBL
NUCLA          NOT AVBL
$$

COZ017>023-064>068-052000-
...SOUTHWEST COLORADO...

CITY           SKY/WX    TMP DP  RH WIND       PRES   REMARKS
DURANGO        FAIR      71  29  21 E10       30.20F
CORTEZ         FAIR      79  29  16 S14G21    30.13F
PAGOSA SPRINGS FAIR      67  20  16 CALM      30.27F
TELLURIDE      FAIR      63  22  20 E7        30.32F
WOLF CREEK PAS PTSUNNY   45  19  36 SW7G21    30.53F
$$

COZ009-010-012-014-032>034-037-058>063-052000-
...CENTRAL COLORADO...

CITY           SKY/WX    TMP DP  RH WIND       PRES   REMARKS
ASPEN          PTSUNNY   69  22  16 SW9       30.22F
BUENA VISTA    FAIR      67  20  16 CALM      30.26F
COPPER MTN     NOT AVBL
BERTHOUD PASS  FAIR      37  30  75 N10G22    30.53S
COTTONWOOD PAS FAIR      66  18  15 CALM      30.38F
GUNNISON       FAIR      66  19  16 NW5       30.27F
KREMMLING      FAIR      70  18  13 CALM      30.22F
LEADVILLE      FAIR      58  15  18 MISG      30.34F
MONARCH PASS   FAIR      46  18  31 MISG      30.60F
SALIDA         FAIR      72  21  14 CALM      30.31F
SUNLIGHT       PTSUNNY   54  23  30 CALM      30.45F
WILKERSON PASS FAIR      54  19  26 CALM      30.49F
$$

COZ069>075-052000-
...SAN LUIS VALLEY/SANGRE DE CRISTO MOUNTAINS...

CITY           SKY/WX    TMP DP  RH WIND       PRES   REMARKS
ALAMOSA        FAIR      69  19  15 E7        30.26F
LA VETA PASS   NOT AVBL
SAGUACHE       FAIR      64  23  20 W3        30.29F
$$

COZ035-036-038>040-052000-
...NORTHERN COLORADO FRONT RANGE...

CITY           SKY/WX    TMP DP  RH WIND       PRES   REMARKS
DENVER INTL AP PTSUNNY   76  26  15 NW5       30.11F
DMNS CITY PARK   N/A     78  24  13 E6G17     30.08F
AURORA         FAIR      76  29  17 VRB7      30.12F
FRONT RANGE AP NOT AVBL
ERIE MUNI ARPT FAIR      78  27  15 E8        30.08F
BOULDER MUN AP FAIR      77  30  18 NE8       30.08F
CENTENNIAL     PTSUNNY   75  19  12 CALM      30.13F
BROOMFIELD     PTSUNNY   77  30  18 E7        30.11F
FORT COLLINS   FAIR      79  39  24 E9        30.06F
LONGMONT       FAIR      81  34  18 E9G16     30.08F
$$

COZ041-046-047-076>085-087-088-052000-
...PIKES PEAK/PALMER DIVIDE AND SOUTHERN FOOTHILLS...

CITY           SKY/WX    TMP DP  RH WIND       PRES   REMARKS
COLO. SPRINGS  FAIR      77  27  15 S7G20     30.15F
A. F. ACADEMY  FAIR      75  19  12 S8        30.15F
SCHRIEVER AFB  NOT AVBL
ELLICOTT       FAIR     N/A N/A N/A CALM      30.15F
FALCON         NOT AVBL
FORT CARSON    FAIR      77  33  19 E8        30.12F
LIMON          FAIR      75  33  21 S10G21    30.12F
MONUMENT HILL  FAIR      68  25  19 SE6       30.22F
TRINIDAD       FAIR      78  24  13 VRB5      30.15F
$$

COZ042>045-048>051-090-091-052000-
...NORTHEAST COLORADO...

CITY           SKY/WX    TMP DP  RH WIND       PRES   REMARKS
GREELEY ARPT   FAIR      79  41  25 SE6       30.08F
AKRON          FAIR      77  36  22 S12       30.08F
BURLINGTON     FAIR      79  35  20 SE15      30.09F
WRAY           NOT AVBL
STERLING       FAIR      79  46  31 SW9       30.03F
HOLYOKE        NOT AVBL
FORT MORGAN    FAIR      77  40  26 SW3       30.07F
$$

COZ086-089-092>099-052000-
...SOUTHEAST COLORADO...

CITY           SKY/WX    TMP DP  RH WIND       PRES   REMARKS
PUEBLO         FAIR      80  37  21 SE8G17    30.08F
LA JUNTA       FAIR      78  39  24 VRB3      30.07F
LAMAR          FAIR      79  44  28 SE12      30.05F
SPRINGFIELD      N/A     78  41  26 CALM      30.08F
$$



USA.gov is the U.S. government's official web portal to all federal, state and local government web resources and services.